Zurück zum Katalog

ION SCV-019

AktivWissenschaftSSO
NORAD 68435·PAYLOAD·🇮🇹 Italy

Gestartet Mar 30, 2026 von Vandenberg Space Force Base

Loading…

Nächste Überflüge (nächste 24 Stunden)

TLE

AktuellSource: Space-Track

Epoche: Sep 14, 2026, 14:19 UTC

1 68435U 26067V   26257.59677996  .00003351  00000-0  15766-3 0  9997
2 68435  97.4649 215.0820 0011446  88.6262 271.6284 15.20201422 25526

Verfolge ION SCV-019 in Echtzeit mit AllMySat

Download on the App Store